| time (UTC) | temp C | wind direction | speed KPH | gust KPH | rain 1hr cm | rain 24hr cm | rain mn cm | humidity % | barometer mb |
| 20260504050334 | 8 | 334 | 3.2 | 3.2 | 0.00 | 0.00 | 0.00 | 43 | 960.6 |
| 20260504045831 | 8 | 290 | 6.4 | 12.9 | 0.00 | 0.00 | 0.00 | 43 | 960.8 |
| 20260504045326 | 8 | 312 | 4.8 | 8.0 | 0.00 | 0.00 | 0.00 | 43 | 960.8 |
| 20260504044823 | 8 | 294 | 4.8 | 4.8 | 0.00 | 0.00 | 0.00 | 43 | 960.6 |
| 20260504044321 | 8 | 10 | 4.8 | 4.8 | 0.00 | 0.00 | 0.00 | 43 | 960.8 |
| 20260504043818 | 8 | 34 | 3.2 | 4.8 | 0.00 | 0.00 | 0.00 | 43 | 960.5 |
| 20260504043315 | 8 | 21 | 0.0 | 1.6 | 0.00 | 0.00 | 0.00 | 43 | 960.5 |
| 20260504042812 | 8 | 328 | 4.8 | 4.8 | 0.00 | 0.00 | 0.00 | 42 | 960.6 |
| 20260504042308 | 9 | 313 | 6.4 | 8.0 | 0.00 | 0.00 | 0.00 | 41 | 960.4 |
| 20260504041805 | 9 | 288 | 4.8 | 8.0 | 0.00 | 0.00 | 0.00 | 41 | 960.6 |
| 20260504041301 | 9 | 342 | 4.8 | 4.8 | 0.00 | 0.00 | 0.00 | 41 | 960.3 |
| 20260504040757 | 9 | 13 | 3.2 | 4.8 | 0.00 | 0.00 | 0.00 | 40 | 960.4 |
| 20260504040255 | 10 | 283 | 9.7 | 12.9 | 0.00 | 0.00 | 0.00 | 39 | 960.3 |
| 20260504035750 | 10 | 274 | 4.8 | 8.0 | 0.00 | 0.00 | 0.00 | 39 | 960.1 |
| 20260504035248 | 10 | 299 | 1.6 | 1.6 | 0.00 | 0.00 | 0.00 | 38 | 960.1 |
| 20260504034745 | 10 | 289 | 3.2 | 3.2 | 0.00 | 0.00 | 0.00 | 38 | 960.1 |
| 20260504034242 | 10 | 260 | 3.2 | 3.2 | 0.00 | 0.00 | 0.00 | 37 | 960.0 |
| 20260504033740 | 10 | 6 | 4.8 | 4.8 | 0.00 | 0.00 | 0.00 | 38 | 959.9 |
| 20260504033237 | 10 | 314 | 4.8 | 8.0 | 0.00 | 0.00 | 0.00 | 37 | 959.8 |
| 20260504032734 | 10 | 290 | 4.8 | 4.8 | 0.00 | 0.00 | 0.00 | 37 | 959.9 |
| 20260504032231 | 10 | 306 | 8.0 | 11.3 | 0.00 | 0.00 | 0.00 | 37 | 959.5 |
| 20260504031728 | 10 | 293 | 4.8 | 9.7 | 0.00 | 0.00 | 0.00 | 36 | 959.5 |
| 20260504031226 | 11 | 331 | 6.4 | 8.0 | 0.00 | 0.00 | 0.00 | 36 | 959.4 |
| 20260504030721 | 11 | 291 | 11.3 | 17.7 | 0.00 | 0.00 | 0.00 | 35 | 959.3 |
| 20260504030218 | 11 | 59 | 4.8 | 4.8 | 0.00 | 0.00 | 0.00 | 34 | 959.4 |
| 20260504025715 | 11 | 47 | 8.0 | 11.3 | 0.00 | 0.00 | 0.00 | 34 | 959.3 |
| 20260504025212 | 11 | 301 | 8.0 | 9.7 | 0.00 | 0.00 | 0.00 | 34 | 959.2 |
| 20260504024709 | 11 | 292 | 4.8 | 8.0 | 0.00 | 0.00 | 0.00 | 34 | 959.1 |
| 20260504024205 | 11 | 251 | 8.0 | 12.9 | 0.00 | 0.00 | 0.00 | 34 | 959.3 |
| 20260504023702 | 11 | 59 | 4.8 | 4.8 | 0.00 | 0.00 | 0.00 | 34 | 959.0 |
| 20260504023158 | 12 | 280 | 8.0 | 11.3 | 0.00 | 0.00 | 0.00 | 34 | 958.9 |
| 20260504022654 | 12 | 338 | 8.0 | 11.3 | 0.00 | 0.00 | 0.00 | 35 | 958.9 |
| 20260504022150 | 12 | 292 | 4.8 | 9.7 | 0.00 | 0.00 | 0.00 | 37 | 959.0 |
| 20260504021648 | 12 | 342 | 6.4 | 9.7 | 0.00 | 0.00 | 0.00 | 36 | 958.9 |
| 20260504021145 | 12 | 327 | 4.8 | 4.8 | 0.00 | 0.00 | 0.00 | 37 | 958.9 |
| 20260504020642 | 12 | 315 | 8.0 | 11.3 | 0.00 | 0.00 | 0.00 | 38 | 958.8 |
| 20260504020138 | 12 | 343 | 9.7 | 12.9 | 0.00 | 0.00 | 0.00 | 38 | 958.9 |
| 20260504015635 | 12 | 11 | 3.2 | 3.2 | 0.00 | 0.00 | 0.00 | 40 | 959.0 |
| 20260504015131 | 12 | 354 | 6.4 | 9.7 | 0.00 | 0.00 | 0.00 | 40 | 958.8 |
| 20260504014627 | 12 | 74 | 4.8 | 8.0 | 0.00 | 0.00 | 0.00 | 40 | 958.7 |
| 20260504014124 | 12 | 327 | 3.2 | 4.8 | 0.00 | 0.00 | 0.00 | 40 | 958.6 |
| 20260504013622 | 12 | 318 | 3.2 | 9.7 | 0.00 | 0.00 | 0.00 | 39 | 958.8 |
| 20260504013119 | 12 | 120 | 6.4 | 9.7 | 0.00 | 0.00 | 0.00 | 39 | 958.7 |
| 20260504012616 | 12 | 334 | 4.8 | 8.0 | 0.00 | 0.00 | 0.00 | 39 | 958.7 |
| 20260504012114 | 12 | 5 | 4.8 | 8.0 | 0.00 | 0.00 | 0.00 | 38 | 958.7 |
| 20260504011610 | 13 | 92 | 3.2 | 4.8 | 0.00 | 0.00 | 0.00 | 37 | 958.7 |
| 20260504011107 | 13 | 297 | 8.0 | 16.1 | 0.00 | 0.00 | 0.00 | 35 | 958.4 |
| 20260504010602 | 13 | 315 | 8.0 | 11.3 | 0.00 | 0.00 | 0.00 | 35 | 958.4 |
| 20260504010058 | 13 | 292 | 6.4 | 8.0 | 0.00 | 0.00 | 0.00 | 36 | 958.2 |
| 20260504005555 | 13 | 292 | 8.0 | 9.7 | 0.00 | 0.00 | 0.00 | 35 | 958.4 |
| 20260504005053 | 14 | 331 | 8.0 | 17.7 | 0.00 | 0.00 | 0.00 | 35 | 958.2 |
| 20260504004550 | 13 | 352 | 14.5 | 20.9 | 0.00 | 0.00 | 0.00 | 35 | 958.2 |
| 20260504004047 | 13 | 305 | 4.8 | 4.8 | 0.00 | 0.00 | 0.00 | 36 | 958.3 |
| 20260504003543 | 13 | 284 | 4.8 | 4.8 | 0.00 | 0.00 | 0.00 | 36 | 958.2 |
| 20260504003040 | 13 | 342 | 6.4 | 9.7 | 0.00 | 0.00 | 0.00 | 38 | 958.1 |
| 20260504002537 | 13 | 40 | 8.0 | 16.1 | 0.00 | 0.00 | 0.00 | 38 | 957.9 |
| 20260504002035 | 13 | 309 | 4.8 | 8.0 | 0.00 | 0.00 | 0.00 | 38 | 958.1 |
| 20260504001532 | 14 | 258 | 8.0 | 14.5 | 0.00 | 0.00 | 0.00 | 37 | 958.0 |
| 20260504001028 | 15 | 278 | 4.8 | 4.8 | 0.00 | 0.00 | 0.00 | 38 | 957.9 |
| 20260504000525 | 15 | 352 | 1.6 | 3.2 | 0.00 | 0.00 | 0.00 | 38 | 958.0 |
| 20260504000022 | 14 | 347 | 8.0 | 11.3 | 0.00 | 0.00 | 0.00 | 38 | 958.0 |
| 20260503235520 | 14 | 333 | 8.0 | 14.5 | 0.00 | 0.00 | 0.00 | 38 | 957.9 |
| 20260503235012 | 14 | 288 | 9.7 | 12.9 | 0.00 | 0.00 | 0.00 | 38 | 958.0 |
| 20260503234509 | 14 | 222 | 3.2 | 4.8 | 0.00 | 0.00 | 0.00 | 38 | 957.8 |
| 20260503234008 | 14 | 290 | 8.0 | 11.3 | 0.00 | 0.00 | 0.00 | 38 | 957.7 |
| 20260503233503 | 14 | 326 | 6.4 | 9.7 | 0.00 | 0.00 | 0.00 | 38 | 957.7 |
| 20260503232959 | 14 | 280 | 11.3 | 14.5 | 0.00 | 0.00 | 0.00 | 38 | 957.8 |
| 20260503232457 | 13 | 10 | 1.6 | 3.2 | 0.00 | 0.00 | 0.00 | 39 | 957.6 |
| 20260503231955 | 14 | 302 | 4.8 | 8.0 | 0.00 | 0.00 | 0.00 | 38 | 957.7 |
| 20260503231452 | 14 | 294 | 4.8 | 8.0 | 0.00 | 0.00 | 0.00 | 38 | 957.6 |
| 20260503230948 | 14 | 324 | 3.2 | 4.8 | 0.00 | 0.00 | 0.00 | 38 | 957.6 |
| 20260503230445 | 15 | 352 | 6.4 | 9.7 | 0.00 | 0.00 | 0.00 | 36 | 957.4 |
| 20260503225943 | 15 | 296 | 9.7 | 11.3 | 0.00 | 0.00 | 0.00 | 35 | 957.4 |
| 20260503225439 | 15 | 250 | 11.3 | 16.1 | 0.00 | 0.00 | 0.00 | 35 | 957.4 |
| 20260503224935 | 15 | 346 | 3.2 | 3.2 | 0.00 | 0.00 | 0.00 | 36 | 957.2 |
| 20260503224432 | 15 | 59 | 9.7 | 20.9 | 0.00 | 0.00 | 0.00 | 36 | 957.2 |
| 20260503223930 | 15 | 302 | 8.0 | 12.9 | 0.00 | 0.00 | 0.00 | 36 | 957.1 |
| 20260503223427 | 15 | 358 | 8.0 | 9.7 | 0.00 | 0.00 | 0.00 | 35 | 957.1 |
| 20260503222922 | 15 | 107 | 8.0 | 11.3 | 0.00 | 0.00 | 0.00 | 33 | 957.1 |
| 20260503222421 | 16 | 317 | 8.0 | 9.7 | 0.00 | 0.00 | 0.00 | 33 | 957.0 |
| 20260503221919 | 16 | 262 | 6.4 | 9.7 | 0.00 | 0.00 | 0.00 | 32 | 956.9 |
| 20260503221417 | 15 | 309 | 9.7 | 12.9 | 0.00 | 0.00 | 0.00 | 32 | 956.8 |
| 20260503220914 | 15 | 344 | 6.4 | 11.3 | 0.00 | 0.00 | 0.00 | 33 | 956.8 |
| 20260503220410 | 15 | 321 | 6.4 | 11.3 | 0.00 | 0.00 | 0.00 | 33 | 956.9 |
| 20260503215908 | 15 | 318 | 6.4 | 9.7 | 0.00 | 0.00 | 0.00 | 33 | 957.0 |
| 20260503215404 | 15 | 346 | 1.6 | 3.2 | 0.00 | 0.00 | 0.00 | 33 | 957.0 |
| 20260503214902 | 15 | 309 | 4.8 | 4.8 | 0.00 | 0.00 | 0.00 | 34 | 956.7 |
| 20260503214359 | 15 | 304 | 11.3 | 16.1 | 0.00 | 0.00 | 0.00 | 33 | 956.9 |
| 20260503213856 | 15 | 330 | 12.9 | 14.5 | 0.00 | 0.00 | 0.00 | 33 | 956.8 |
| 20260503213354 | 15 | 286 | 11.3 | 16.1 | 0.00 | 0.00 | 0.00 | 33 | 956.8 |
| 20260503212850 | 15 | 330 | 12.9 | 17.7 | 0.00 | 0.00 | 0.00 | 33 | 956.8 |
| 20260503212349 | 15 | 305 | 14.5 | 22.5 | 0.00 | 0.00 | 0.00 | 33 | 956.9 |
| 20260503211845 | 15 | 299 | 4.8 | 8.0 | 0.00 | 0.00 | 0.00 | 34 | 957.0 |
| 20260503211342 | 15 | 259 | 11.3 | 14.5 | 0.00 | 0.00 | 0.00 | 33 | 956.9 |
| 20260503210837 | 15 | 297 | 9.7 | 12.9 | 0.00 | 0.00 | 0.00 | 33 | 956.9 |
| 20260503210335 | 15 | 353 | 11.3 | 17.7 | 0.00 | 0.00 | 0.00 | 32 | 956.9 |
| 20260503205830 | 15 | 8 | 12.9 | 17.7 | 0.00 | 0.00 | 0.00 | 32 | 956.9 |
| 20260503205326 | 15 | 301 | 6.4 | 8.0 | 0.00 | 0.00 | 0.00 | 33 | 956.9 |
| 20260503204823 | 15 | 277 | 3.2 | 3.2 | 0.00 | 0.00 | 0.00 | 33 | 957.0 |
| 20260503204321 | 15 | 15 | 14.5 | 16.1 | 0.00 | 0.00 | 0.00 | 33 | 957.0 |
| 20260503203818 | 15 | 304 | 12.9 | 29.0 | 0.00 | 0.00 | 0.00 | 33 | 957.1 |
| 20260503203315 | 15 | 329 | 4.8 | 8.0 | 0.00 | 0.00 | 0.00 | 34 | 956.9 |
| 20260503202812 | 15 | 312 | 8.0 | 11.3 | 0.00 | 0.00 | 0.00 | 34 | 956.8 |
| 20260503202310 | 15 | 1 | 4.8 | 8.0 | 0.00 | 0.00 | 0.00 | 34 | 956.8 |
| 20260503201808 | 15 | 299 | 8.0 | 11.3 | 0.00 | 0.00 | 0.00 | 34 | 957.0 |
| 20260503201305 | 15 | 70 | 9.7 | 11.3 | 0.00 | 0.00 | 0.00 | 34 | 957.0 |
| 20260503200802 | 15 | 200 | 8.0 | 12.9 | 0.00 | 0.00 | 0.00 | 34 | 956.8 |
| 20260503200257 | 15 | 285 | 6.4 | 12.9 | 0.00 | 0.00 | 0.00 | 35 | 956.7 |
| 20260503195755 | 15 | 309 | 9.7 | 16.1 | 0.00 | 0.00 | 0.00 | 34 | 956.9 |
| 20260503195251 | 15 | 304 | 12.9 | 16.1 | 0.00 | 0.00 | 0.00 | 33 | 956.7 |
| 20260503194749 | 16 | 331 | 8.0 | 11.3 | 0.00 | 0.00 | 0.00 | 33 | 956.7 |
| 20260503194245 | 16 | 322 | 9.7 | 14.5 | 0.00 | 0.00 | 0.00 | 33 | 956.7 |
| 20260503193741 | 16 | 242 | 9.7 | 11.3 | 0.00 | 0.00 | 0.00 | 32 | 956.8 |
| 20260503193237 | 16 | 334 | 11.3 | 20.9 | 0.00 | 0.00 | 0.00 | 30 | 956.6 |
| 20260503192733 | 16 | 343 | 9.7 | 12.9 | 0.00 | 0.00 | 0.00 | 31 | 956.5 |
| 20260503192228 | 16 | 297 | 11.3 | 14.5 | 0.00 | 0.00 | 0.00 | 32 | 956.6 |
| 20260503191725 | 16 | 289 | 4.8 | 4.8 | 0.00 | 0.00 | 0.00 | 32 | 956.8 |
| 20260503191222 | 16 | 297 | 8.0 | 9.7 | 0.00 | 0.00 | 0.00 | 32 | 956.5 |
| 20260503190720 | 16 | 341 | 12.9 | 20.9 | 0.00 | 0.00 | 0.00 | 32 | 956.5 |
| 20260503190216 | 16 | 235 | 8.0 | 9.7 | 0.00 | 0.00 | 0.00 | 32 | 956.3 |
| 20260503185714 | 16 | 348 | 3.2 | 3.2 | 0.00 | 0.00 | 0.00 | 33 | 956.4 |
| 20260503185209 | 16 | 276 | 11.3 | 16.1 | 0.00 | 0.00 | 0.00 | 31 | 956.6 |
| 20260503184703 | 17 | 292 | 8.0 | 12.9 | 0.00 | 0.00 | 0.00 | 30 | 956.5 |
| 20260503184200 | 16 | 266 | 9.7 | 17.7 | 0.00 | 0.00 | 0.00 | 31 | 956.6 |
| 20260503183656 | 16 | 319 | 14.5 | 22.5 | 0.00 | 0.00 | 0.00 | 31 | 956.6 |
| 20260503183154 | 16 | 296 | 6.4 | 12.9 | 0.00 | 0.00 | 0.00 | 31 | 956.7 |
| 20260503182652 | 17 | 294 | 9.7 | 12.9 | 0.00 | 0.00 | 0.00 | 31 | 956.5 |
| 20260503182150 | 16 | 302 | 9.7 | 12.9 | 0.00 | 0.00 | 0.00 | 33 | 956.5 |
| 20260503181646 | 16 | 356 | 4.8 | 8.0 | 0.00 | 0.00 | 0.00 | 33 | 956.5 |
| 20260503181143 | 16 | 322 | 8.0 | 11.3 | 0.00 | 0.00 | 0.00 | 33 | 956.5 |
| 20260503180640 | 16 | 320 | 11.3 | 12.9 | 0.00 | 0.00 | 0.00 | 32 | 956.6 |
| 20260503180138 | 16 | 272 | 6.4 | 8.0 | 0.00 | 0.00 | 0.00 | 33 | 956.7 |
| 20260503175635 | 16 | 274 | 4.8 | 8.0 | 0.00 | 0.00 | 0.00 | 34 | 956.8 |
| 20260503175132 | 16 | 293 | 12.9 | 16.1 | 0.00 | 0.00 | 0.00 | 33 | 956.9 |
| 20260503174629 | 16 | 343 | 9.7 | 12.9 | 0.00 | 0.00 | 0.00 | 34 | 956.7 |
| 20260503174126 | 16 | 251 | 6.4 | 9.7 | 0.00 | 0.00 | 0.00 | 34 | 956.9 |
| 20260503173621 | 16 | 295 | 11.3 | 16.1 | 0.00 | 0.00 | 0.00 | 34 | 956.6 |
| 20260503173117 | 16 | 40 | 3.2 | 4.8 | 0.00 | 0.00 | 0.00 | 34 | 956.6 |
| 20260503172614 | 16 | 303 | 4.8 | 8.0 | 0.00 | 0.00 | 0.00 | 34 | 956.5 |
| 20260503172112 | 16 | 354 | 8.0 | 9.7 | 0.00 | 0.00 | 0.00 | 35 | 956.5 |
| 20260503171609 | 16 | 319 | 8.0 | 9.7 | 0.00 | 0.00 | 0.00 | 34 | 956.7 |
| 20260503171106 | 17 | 228 | 12.9 | 22.5 | 0.00 | 0.00 | 0.00 | 33 | 956.5 |
| 20260503170603 | 16 | 15 | 8.0 | 12.9 | 0.00 | 0.00 | 0.00 | 33 | 956.7 |
| 20260503150954 | 15 | 287 | 8.0 | 12.9 | 0.00 | 0.00 | 0.00 | 44 | 956.2 |
| 20260503150451 | 14 | 306 | 4.8 | 4.8 | 0.00 | 0.00 | 0.00 | 44 | 956.3 |
| 20260503131344 | 12 | 327 | 3.2 | 3.2 | 0.00 | 0.00 | 0.00 | 47 | 955.6 |
| 20260503130841 | 12 | 162 | 1.6 | 3.2 | 0.00 | 0.00 | 0.00 | 47 | 955.3 |
| 20260503130338 | 11 | 113 | 3.2 | 3.2 | 0.00 | 0.00 | 0.00 | 48 | 955.5 |
| 20260503110733 | 9 | 250 | 1.6 | 1.6 | 0.00 | 0.00 | 0.00 | 57 | 955.4 |
| 20260503110230 | 9 | 244 | 1.6 | 1.6 | 0.00 | 0.00 | 0.00 | 57 | 955.4 |
| 20260503100156 | 10 | 208 | 0.0 | 0.0 | 0.00 | 0.00 | 0.00 | 53 | 956.0 |
| 20260503090115 | 10 | 49 | 0.0 | 1.6 | 0.00 | 0.00 | 0.00 | 48 | 955.9 |
| 20260503081551 | 11 | 203 | 1.6 | 1.6 | 0.00 | 0.00 | 0.00 | 43 | 956.2 |
| 20260503081048 | 12 | 146 | 1.6 | 1.6 | 0.00 | 0.00 | 0.00 | 42 | 956.4 |
| 20260503080544 | 12 | 209 | 1.6 | 1.6 | 0.00 | 0.00 | 0.00 | 41 | 956.4 |
| 20260503072518 | 13 | 28 | 0.0 | 0.0 | 0.00 | 0.00 | 0.00 | 39 | 956.7 |
| 20260503072015 | 13 | 245 | 3.2 | 3.2 | 0.00 | 0.00 | 0.00 | 39 | 956.5 |
| 20260503071512 | 13 | 271 | 4.8 | 8.0 | 0.00 | 0.00 | 0.00 | 38 | 956.5 |
| 20260503071008 | 13 | 195 | 1.6 | 3.2 | 0.00 | 0.00 | 0.00 | 38 | 956.5 |
| 20260503070505 | 13 | 318 | 3.2 | 3.2 | 0.00 | 0.00 | 0.00 | 38 | 956.6 |